Simultaneous Nadir Overpasses (SNOs) Predictions

Prediction of SNOs between LANDSAT-8 and NPP Satellite Orbit:

Table of predicted SNOs for the next 14.0 days since TLE Epoch: 10/25/2014
Index Date (LANDSAT-8) Time (LANDSAT-8) Lat,Lon (LANDSAT-8) SZA (LANDSAT-8 ) Date (NPP) Time (NPP) Lat,Lon (NPP) SZA (NPP ) Distance(km) Time Diff (sec)
1 10/26/2014 08:55:46 70.92, 43.70 83.29 10/26/2014 08:54:34 70.93, 43.60 83.29 3.68 72
2 10/26/2014 09:45:16 -70.81,-148.84 96.82 10/26/2014 09:45:15 -70.79,-148.84 96.84 2.49 1
3 10/26/2014 10:34:45 70.60, 18.48 82.98 10/26/2014 10:35:57 70.58, 18.81 82.97 12.20 72
4 10/29/2014 01:12:14 70.88, 159.53 84.15 10/29/2014 01:11:22 70.87, 159.49 84.14 2.34 52
5 10/29/2014 02:01:44 -70.77, -33.00 95.95 10/29/2014 02:02:04 -70.77, -33.03 95.95 1.05 20
6 10/29/2014 02:51:27 69.79, 133.21 83.07 10/29/2014 02:52:32 69.83, 135.75 83.13 97.65 65
7 10/31/2014 17:28:41 70.82, -84.68 84.97 10/31/2014 17:28:09 70.82, -84.63 84.96 1.64 32
8 10/31/2014 18:18:11 -70.71, 82.79 95.14 10/31/2014 18:18:51 -70.72, 82.85 95.13 2.28 40
9 11/03/2014 08:55:33 -71.33,-135.63 93.69 11/03/2014 08:54:23 -71.39,-137.12 93.63 53.48 70
10 11/03/2014 09:45:08 70.79, 31.16 85.78 11/03/2014 09:44:57 70.78, 31.23 85.77 2.53 11
11 11/03/2014 10:34:38 -70.68,-161.37 94.33 11/03/2014 10:35:39 -70.68,-161.29 94.32 3.01 61
12 11/06/2014 01:12:07 -70.88, -20.44 93.32 11/06/2014 01:11:02 -70.89, -20.48 93.31 1.46 65
13 11/06/2014 02:01:34 70.78, 147.04
